| time (UTC) | temp F | wind direction | speed MPH | gust MPH | rain 1hr in | rain 24hr in | rain mn in | humidity % | barometer mb |
| 20260905024831 | 85 | 314 | 2.0 | 8.0 | 0.00 | 0.00 | 0.00 | 48 | 1013.2 |
| 20260905023330 | 85 | 332 | 2.0 | 9.0 | 0.00 | 0.00 | 0.00 | 43 | 864.1 |
| 20260905021826 | 84 | 294 | 2.0 | 4.0 | 0.00 | 0.00 | 0.00 | 51 | 719.2 |
| 20260905020327 | 83 | 351 | 1.0 | 3.0 | 0.00 | 0.00 | 0.00 | 46 | 716.9 |
| 20260905014824 | 82 | 37 | 0.0 | 2.0 | 0.00 | 0.00 | 0.00 | 47 | 1014.9 |
| 20260905013324 | 81 | 37 | 1.0 | 2.0 | 0.00 | 0.00 | 0.00 | 48 | 511.6 |
| 20260905011820 | 80 | 37 | 0.0 | 2.0 | 0.00 | 0.00 | 0.00 | 50 | 810.1 |
| 20260905010318 | 80 | 37 | 1.0 | 2.0 | 0.00 | 0.00 | 0.00 | 51 | 1016.0 |
| 20260905004841 | 80 | 315 | 1.0 | 2.0 | 0.00 | 0.00 | 0.00 | 65 | 1016.2 |
| 20260905003317 | 78 | 324 | 1.0 | 2.0 | 0.00 | 0.00 | 0.00 | 60 | |
| 20260905001814 | 76 | 335 | 1.0 | 4.0 | 0.00 | 0.00 | 0.00 | 69 | 1088.1 |
| 20260905000318 | 73 | 321 | 0.0 | 0.0 | 0.00 | 0.00 | 0.00 | 75 | 952.7 |
| 20260904233321 | 69 | 321 | 1.0 | 2.0 | 0.00 | 0.00 | 0.00 | 84 | 628.9 |
| 20260904231823 | 66 | 327 | 1.0 | 2.0 | 0.00 | 0.00 | 0.00 | 89 | 267.2 |
| 20260904230320 | 63 | 327 | 1.0 | 2.0 | 0.00 | 0.00 | 0.00 | 93 | 840.5 |
| 20260904224820 | 60 | 323 | 1.0 | 2.0 | 0.00 | 0.00 | 0.00 | 93 | 568.9 |
| 20260904223322 | 58 | 336 | 0.0 | 0.0 | 0.00 | 0.00 | 0.00 | 93 | 243.5 |
| 20260904221825 | 57 | 336 | 0.0 | 0.0 | 0.00 | 0.00 | 0.00 | 93 | 1017.9 |
| 20260904220329 | 56 | 336 | 0.0 | 0.0 | 0.00 | 0.00 | 0.00 | 93 | 511.2 |
| 20260904214811 | 55 | 336 | 0.0 | 0.0 | 0.00 | 0.00 | 0.00 | 93 | 511.1 |
| 20260904211825 | 54 | 336 | 0.0 | 0.0 | 0.00 | 0.00 | 0.00 | 93 | 1018.3 |
| 20260904210321 | 53 | 336 | 0.0 | 0.0 | 0.00 | 0.00 | 0.00 | 93 | 545.8 |
| 20260904204823 | 52 | 336 | 0.0 | 0.0 | 0.00 | 0.00 | 0.00 | 93 | 1018.2 |
| 20260904203319 | 52 | 336 | 0.0 | 0.0 | 0.00 | 0.00 | 0.00 | 93 | 1018.1 |
| 20260904201817 | 52 | 336 | 0.0 | 0.0 | 0.00 | 0.00 | 0.00 | 93 | 1018.1 |
| 20260904200318 | 52 | 336 | 0.0 | 0.0 | 0.00 | 0.00 | 0.00 | 93 | 1018.0 |
| 20260904194835 | 52 | 336 | 0.0 | 0.0 | 0.00 | 0.00 | 0.00 | 93 | 1018.1 |
| 20260904193314 | 52 | 336 | 0.0 | 0.0 | 0.00 | 0.00 | 0.00 | 93 | 1018.1 |
| 20260904191812 | 52 | 336 | 0.0 | 0.0 | 0.00 | 0.00 | 0.00 | 92 | 1090.3 |
| 20260904190329 | 53 | 336 | 0.0 | 0.0 | 0.00 | 0.00 | 0.00 | 93 | 469.6 |
| 20260904184829 | 52 | 336 | 0.0 | 0.0 | 0.00 | 0.00 | 0.00 | 92 | 518.5 |
| 20260904183325 | 53 | 336 | 0.0 | 0.0 | 0.00 | 0.00 | 0.00 | 92 | 930.7 |
| 20260904181822 | 53 | 336 | 0.0 | 0.0 | 0.00 | 0.00 | 0.00 | 92 | 1017.8 |
| 20260904180324 | 53 | 336 | 0.0 | 0.0 | 0.00 | 0.00 | 0.00 | 92 | 1017.8 |
| 20260904174821 | 53 | 336 | 0.0 | 0.0 | 0.00 | 0.00 | 0.00 | 92 | 1017.9 |
| 20260904173323 | 53 | 336 | 0.0 | 0.0 | 0.00 | 0.00 | 0.00 | 92 | 1017.8 |
| 20260904171842 | 53 | 336 | 0.0 | 0.0 | 0.00 | 0.00 | 0.00 | 92 | 1017.8 |
| 20260904170318 | 53 | 336 | 0.0 | 0.0 | 0.00 | 0.00 | 0.00 | 92 | 1089.6 |
| 20260904164820 | 53 | 336 | 0.0 | 0.0 | 0.00 | 0.00 | 0.00 | 92 | 1017.9 |
| 20260904163315 | 53 | 336 | 0.0 | 0.0 | 0.00 | 0.00 | 0.00 | 92 | 1018.0 |
| 20260904161812 | 53 | 260 | 0.0 | 0.0 | 0.00 | 0.00 | 0.00 | 92 | 1018.5 |
| 20260904160333 | 53 | 260 | 0.0 | 0.0 | 0.00 | 0.00 | 0.00 | 92 | 1018.5 |
| 20260904154810 | 53 | 260 | 0.0 | 0.0 | 0.00 | 0.00 | 0.00 | 92 | 1018.7 |
| 20260904153310 | 54 | 260 | 0.0 | 0.0 | 0.00 | 0.00 | 0.00 | 92 | 1018.7 |
| 20260904151827 | 54 | 260 | 0.0 | 0.0 | 0.00 | 0.00 | 0.00 | 92 | 1018.7 |
| 20260904150324 | 54 | 260 | 0.0 | 0.0 | 0.00 | 0.00 | 0.00 | 92 | 1018.9 |
| 20260904144825 | 54 | 260 | 0.0 | 0.0 | 0.00 | 0.00 | 0.00 | 92 | 1018.9 |
| 20260904143343 | 54 | 260 | 0.0 | 0.0 | 0.00 | 0.00 | 0.00 | 92 | 1019.3 |
| 20260904141819 | 54 | 260 | 0.0 | 0.0 | 0.00 | 0.00 | 0.00 | 91 | 1019.4 |
| 20260904140320 | 54 | 260 | 0.0 | 0.0 | 0.00 | 0.00 | 0.00 | 91 | 1019.3 |
| 20260904134817 | 54 | 260 | 0.0 | 1.0 | 0.00 | 0.00 | 0.00 | 91 | 1019.3 |
| 20260904133318 | 55 | 260 | 0.0 | 2.0 | 0.00 | 0.00 | 0.00 | 91 | 1019.3 |
| 20260904131815 | 55 | 260 | 0.0 | 0.0 | 0.00 | 0.00 | 0.00 | 91 | 1019.3 |
| 20260904130312 | 55 | 260 | 0.0 | 0.0 | 0.00 | 0.00 | 0.00 | 91 | 1019.1 |
| 20260904124815 | 55 | 260 | 0.0 | 0.0 | 0.00 | 0.00 | 0.00 | 91 | 1019.2 |
| 20260904123311 | 56 | 260 | 0.0 | 0.0 | 0.00 | 0.00 | 0.00 | 91 | 1019.2 |
| 20260904121813 | 56 | 260 | 0.0 | 0.0 | 0.00 | 0.00 | 0.00 | 91 | 1019.2 |
| 20260904120312 | 56 | 260 | 0.0 | 0.0 | 0.00 | 0.00 | 0.00 | 91 | 1019.2 |
| 20260904114812 | 56 | 260 | 0.0 | 0.0 | 0.00 | 0.00 | 0.00 | 91 | 1019.3 |
| 20260904113316 | 57 | 260 | 0.0 | 0.0 | 0.00 | 0.00 | 0.00 | 90 | 1019.2 |
| 20260904111817 | 57 | 260 | 0.0 | 0.0 | 0.00 | 0.00 | 0.00 | 90 | 1019.2 |
| 20260904110318 | 57 | 260 | 0.0 | 0.0 | 0.00 | 0.00 | 0.00 | 90 | 1019.2 |
| 20260904104823 | 57 | 260 | 0.0 | 0.0 | 0.00 | 0.00 | 0.00 | 90 | 1019.2 |
| 20260904103324 | 58 | 260 | 0.0 | 0.0 | 0.00 | 0.00 | 0.00 | 90 | 764.8 |
| 20260904101829 | 58 | 260 | 0.0 | 0.0 | 0.00 | 0.00 | 0.00 | 90 | 1038.2 |
| 20260904100328 | 58 | 260 | 0.0 | 0.0 | 0.00 | 0.00 | 0.00 | 89 | 965.6 |
| 20260904094825 | 59 | 260 | 0.0 | 0.0 | 0.00 | 0.00 | 0.00 | 89 | 1018.6 |
| 20260904093328 | 59 | 260 | 0.0 | 0.0 | 0.00 | 0.00 | 0.00 | 89 | 1039.5 |
| 20260904091825 | 60 | 260 | 0.0 | 0.0 | 0.00 | 0.00 | 0.00 | 89 | 1018.6 |
| 20260904090348 | 60 | 260 | 0.0 | 0.0 | 0.00 | 0.00 | 0.00 | 88 | 523.7 |
| 20260904084825 | 60 | 260 | 0.0 | 0.0 | 0.00 | 0.00 | 0.00 | 88 | 1089.5 |
| 20260904083321 | 61 | 260 | 0.0 | 0.0 | 0.00 | 0.00 | 0.00 | 87 | 1018.3 |
| 20260904081823 | 61 | 260 | 0.0 | 0.0 | 0.00 | 0.00 | 0.00 | 86 | |
| 20260904080321 | 62 | 229 | 0.0 | 0.0 | 0.00 | 0.00 | 0.00 | 85 | 899.5 |
| 20260904074817 | 63 | 155 | 0.0 | 0.0 | 0.00 | 0.00 | 0.00 | 83 | 1017.9 |
| 20260904073319 | 64 | 155 | 0.0 | 0.0 | 0.00 | 0.00 | 0.00 | 83 | 1038.9 |
| 20260904071816 | 64 | 134 | 0.0 | 2.0 | 0.00 | 0.00 | 0.00 | 82 | 1017.6 |
| 20260904070318 | 65 | 138 | 1.0 | 3.0 | 0.00 | 0.00 | 0.00 | 82 | 1017.3 |
| 20260904064812 | 65 | 163 | 1.0 | 2.0 | 0.00 | 0.00 | 0.00 | 81 | 5.1 |
| 20260904063330 | 66 | 167 | 0.0 | 3.0 | 0.00 | 0.00 | 0.00 | 80 | 793.0 |
| 20260904061812 | 66 | 139 | 2.0 | 4.0 | 0.00 | 0.00 | 0.00 | 79 | 1088.9 |
| 20260904060310 | 67 | 150 | 4.0 | 9.0 | 0.00 | 0.00 | 0.00 | 78 | 513.6 |
| 20260904054810 | 67 | 161 | 1.0 | 5.0 | 0.00 | 0.00 | 0.00 | 76 | 1088.3 |
| 20260904053329 | 67 | 145 | 4.0 | 8.0 | 0.00 | 0.00 | 0.00 | 77 | 1017.1 |
| 20260904051827 | 68 | 153 | 2.0 | 9.0 | 0.00 | 0.00 | 0.00 | 76 | 1017.3 |
| 20260904050328 | 68 | 156 | 2.0 | 6.0 | 0.00 | 0.00 | 0.00 | 74 | 811.6 |
| 20260904044826 | 68 | 159 | 2.0 | 3.0 | 0.00 | 0.00 | 0.00 | 73 | 1017.4 |
| 20260904043324 | 68 | 161 | 3.0 | 5.0 | 0.00 | 0.00 | 0.00 | 74 | 1017.5 |
| 20260904041826 | 69 | 153 | 3.0 | 7.0 | 0.00 | 0.00 | 0.00 | 72 | 1017.0 |
| 20260904040323 | 69 | 178 | 3.0 | 8.0 | 0.00 | 0.00 | 0.00 | 71 | 1017.1 |
| 20260904034847 | 69 | 169 | 2.0 | 11.0 | 0.00 | 0.00 | 0.00 | 71 | 1017.0 |
| 20260904033323 | 70 | 145 | 3.0 | 7.0 | 0.00 | 0.00 | 0.00 | 69 | 1017.1 |
| 20260904031818 | 71 | 146 | 5.0 | 10.0 | 0.00 | 0.00 | 0.00 | 70 | 513.4 |
| 20260904030319 | 70 | 142 | 2.0 | 9.0 | 0.00 | 0.00 | 0.00 | 68 | 1017.3 |